SCP
0 0 0 0 -0 -0 -0 0 0 0 -0 -0 -0 0 0 0 0 0 0 0 0 0 0 0 0 0 0 0 0 0 0 0 0 0 0 0 0 0 0 0 0 0 0 0 0 0 0 0 0 0 0 0 0 0
0 0 0 -0 -0 -0 -0 -0 0 0 0 -0 -0 0 0 0 0 0 0 0 0 0 0 0 0 0 -0 0 0 0 0 0 0 0 0 0 0 0 0 0 0 0 0 0 0 0 0 0 0 0 0 0 0 0
0 -0 0 0 0 0 -0 0 0 0 -0 -0 -0 -0 0 0 0 0 0 0 0 0 0 0 0 0 0 -0 0 0 0 0 0 0 0 0 0 0 0 0 0 0 0 0 0 0 0 0 0 0 0 0 0 0
-0 -0 -0 0 0 0 0 -0 -0 -0 -0 -0 -0 -0 0 0 0 0 0 0 0 0 0 0 -0 0 0 0 -0 -0 0 0 0 0 0 0 0 0 0 0 0 0 0 0 0 0 0 0 0 0 0 0 0 0
-0 -0 -0 -0 0 0 0 0 -0 -0 -0 -0 0 0 0 0 0 0 0 0 0 0 0 0 0 0 0 0 0 0 0 -0 0 0 0 0 0 0 0 0 0 0 0 0 0 0 0 0 0 0 0 0 0 0
-0 -0 -0 0 0 0 0 0 0 -0 -0 0 0 0 0 0 0 0 0 0 0 0 0 0 0 0 0 0 0 0 0 0 0 0 0 0 0 0 0 0 0 0 0 0 0 0 0 0 0 0 0 0 0 0
0 0 0 0 0 0 0 0 0 -0 0 0 0 0 0 0 0 0 0 0 0 0 0 0 0 0 0 0 0 0 0 0 0 0 0 0 0 0 0 0 0 0 0 0 0 0 0 0 0 0 0 0 0 0
0 0 0 0 0 0 0 0 0 0 0 0 0 0 0 0 0 0 0 0 0 0 0 0 0 0 0 0 0 0 0 0 0 0 0 0 0 0 0 0 0 0 0 0 0 0 0 0 0 0 0 0 0 0
0 0 0 0 0 0 0 0 0 0 0 0 0 0 0 0 0 0 0 0 0 0 0 0 0 0 0 0 0 0 0 0 0 0 0 0 0 0 0 0 0 0 0 0 0 0 0 0 0 0 0 0 0 0
0 0 0 0 0 0 0 0 0 0 0 0 0 0 0 0 0 0 0 0 0 0 0 0 0 0 0 0 0 0 0 0 0 0 0 0 0 0 0 0 -0 0 0 0 0 0 0 0 0 0 0 0 0 0
0 0 0 0 0 0 0 0 0 0 0 0 0 0 0 0 0 0 0 0 0 0 0 0 0 0 0 0 0 0 0 0 0 0 0 0 0 0 0 0 0 0 -0 0 0 0 0 0 0 0 0 0 0 0
0 0 0 0 0 0 0 0 0 0 0 0 0 0 0 0 0 0 0 0 0 0 0 0 0 0 0 0 0 0 0 0 0 0 0 0 0 0 0 0 0 0 0 0 0 0 0 0 0 0 0 0 0 0
0 0 0 0 0 0 0 0 0 0 0 0 0 0 0 0 0 0 0 0 0 0 0 0 0 0 0 0 0 0 0 0 0 0 0 0 0 0 0 0 0 0 0 0 0 0 0 0 0 0 0 0 0 0
0 0 0 0 0 0 0 0 0 0 0 0 0 0 -0 -0 -0 0 0 0 0 0 0 0 0 0 0 0 0 0 0 0 0 0 0 0 0 0 0 0 0 0 0 0 0 0 0 0 0 0 0 0 0 0
0 0 0 0 0 0 0 0 0 0 0 0 0 0 0 0 0 -0 -0 0 0 0 0 0 0 0 0 0 0 0 0 0 0 0 0 0 0 0 0 0 0 0 0 0 0 0 0 0 0 0 0 0 0 0
0 0 0 0 0 0 0 0 0 0 0 0 0 0 0 0 0 -0 -0 0 0 0 0 0 0 0 0 0 0 0 0 0 0 0 0 0 0 0 0 0 0 0 0 0 0 0 0 0 0 0 0 0 0 0
0 0 0 0 0 -0 0 0 0 0 0 0 0 0 0 0 0 0 0 0 0 0 0 0 0 0 0 0 0 0 0 0 0 0 0 -0 0 0 -0 0 0 0 0 0 0 0 0 0 0 0 0 0 0 0
0 0 -0 -0 0 0 0 0 0 0 0 0 0 0 0 0 0 0 0 0 0 0 0 0 0 0 0 0 0 0 0 0 0 0 0 0 0 0 0 0 0 0 0 0 0 0 0 0 0 -0 0 0 0 -0
0 -0 -0 -0 0 0 0 0 0 0 0 0 0 0 0 0 0 0 0 0 0 0 0 -0 -0 0 0 0 0 0 0 0 0 0 0 0 -0 0 -0 0 0 0 0 0 0 0 -0 -0 0 0 0 0 0 -0
-0 -0 -0 0 0 0 -0 0 0 0 0 0 0 0 0 0 0 0 0 0 0 0 0 -0 0 0 -0 -0 -0 0 0 -0 -0 -0 -0 -0 -0 0 0 -0 0 0 0 0 0 0 0 0 0 0 0 0 0 0
-0 -0 0 0 0 0 0 0 0 0 0 0 0 0 0 0 0 0 0 0 0 0 0 0 0 0 0 0 0 -0 -0 -0 -0 -0 -0 0 0 0 0 0 0 0 0 0 0 0 0 0 0 0 0 0 0 0
0 -0 0 0 0 0 0 0 0 0 0 0 0 0 0 0 0 0 0 0 0 0 0 0 0 -0 -0 -0 0 0 0 -0 0 -0 0 0 0 0 0 0 0 0 0 0 0 0 0 0 0 0 0 0 0 0
-0 0 0 0 0 0 0 0 0 0 0 0 0 0 0 0 0 0 0 0 0 0 0 0 0 0 0 0 -0 0 0 0 0 0 0 0 0 0 0 0 0 -0 -0 0 0 0 0 0 0 0 0 0 0 0
0 0 0 0 0 0 0 0 0 0 0 0 0 0 0 0 0 0 -0 0 0 0 0 0 0 -0 -0 -0 0 0 0 0 0 0 0 -0 0 -0 -0 -0 -0 -0 -0 -0 -0 -0 0 0 0 0 0 0 0 0
0 0 0 0 0 0 0 0 0 0 0 0 0 0 0 0 0 0 0 0 0 0 0 0 0 0 0 0 -0 0 -0 -0 -0 -0 -0 -0 -0 -0 -0 -0 -0 -0 -0 -0 0 -0 -0 -0 -0 -0 -0 -0 -0 -0
0 0 0 0 0 0 0 0 0 0 0 0 0 0 0 0 0 -0 0 0 0 0 0 0 0 0 0 0 0 0 0 -0 -0 -0 -0 -0 -0 -0 -0 -0 0 0 0 0 0 -0 -0 0 0 0 0 0 0 0
0 0 0 0 0 0 0 0 0 0 0 0 0 0 0 0 0 -0 -0 -0 0 0 0 0 0 0 0 0 0 0 0 -0 -0 -0 -0 -0 -0 0 0 -0 -0 0 0 -0 -0 -0 0 0 0 0 0 0 0 0
0 0 0 0 0 0 0 0 0 0 0 0 0 0 0 0 -0 0 -0 0 -0 0 0 0 0 0 0 0 0 0 -0 -0 -0 -0 0 -0 0 0 0 0 0 -0 0 0 0 0 0 0 0 0 0 0 0 0
0 0 0 0 0 0 0 0 0 0 0 0 0 0 0 0 0 0 0 0 -0 0 0 0 0 0 -0 -0 0 -0 0 -0 0 -0 -0 0 0 -0 -0 -0 0 0 0 0 0 0 0 0 0 0 0 0 0 0
-0 0 0 0 0 0 0 0 0 0 0 0 0 0 -0 -0 -0 0 0 -0 -0 -0 0 0 -0 0 0 -0 -0 -0 -0 -0 -0 0 0 0 -0 -0 -0 -0 0 0 0 0 0 0 0 0 0 0 0 0 0 0
0 0 0 0 0 0 0 0 0 0 0 0 0 -0 -0 -0 -0 0 0 0 0 -0 -0 0 -0 -0 -0 -0 -0 0 0 0 0 -0 -0 -0 -0 0 0 0 -0 0 0 0 0 0 0 0 0 0 0 0 0 0
0 0 0 0 0 0 0 0 0 0 0 0 -0 -0 -0 -0 -0 -0 -0 -0 -0 -0 -0 -0 -0 -0 0 0 0 -0 0 -0 0 0 -0 0 0 0 0 0 0 0 0 0 -0 -0 -0 -0 0 0 0 0 0 0
-0 0 0 0 0 0 0 0 0 0 0 0 0 0 0 0 0 -0 0 -0 -0 -0 0 0 0 0 0 0 0 0 -0 0 0 0 -0 0 0 0 0 0 0 0 0 0 0 0 -0 0 0 0 0 0 0 0
Wind_Speed_500mb
38 42 46 48 50 50 48 45 40 38 37 36 30 25 24 22 22 22 18 17 21 15 46 56 47 33 29 20 4 10 13 7 4 3 6 8 9 6 3 6 8 9 9 1 2 7 2 4 8 10 9 13 5 3
38 41 45 47 50 52 51 49 44 41 39 36 29 25 26 27 26 27 19 18 25 30 37 60 70 71 57 41 15 12 7 7 6 5 2 4 1 2 3 6 0 6 12 10 13 11 6 2 3 4 9 10 6 7
40 43 46 48 52 56 55 52 47 43 41 35 27 28 30 30 29 31 34 27 29 28 51 29 25 16 17 32 69 21 17 14 8 6 7 3 3 7 4 9 5 5 5 9 5 8 13 8 13 14 13 20 14 12
41 43 47 50 53 55 56 58 53 46 37 32 29 35 35 32 31 35 35 30 22 13 9 15 4 30 33 36 31 71 35 8 9 8 4 4 2 6 6 7 6 3 7 6 4 9 12 20 32 24 16 17 16 13
41 45 47 50 52 55 58 59 56 45 38 36 38 40 38 35 34 35 34 31 22 15 9 31 50 4 11 6 30 46 63 60 13 4 3 3 7 6 3 1 5 13 12 9 10 12 8 3 10 12 8 7 8 12
41 45 47 50 53 54 56 59 59 49 44 47 47 44 37 33 31 24 7 3 7 22 10 9 21 13 22 17 17 35 51 50 29 8 8 7 7 6 3 5 12 25 22 18 5 7 15 3 3 10 13 12 4 3
43 46 48 51 54 57 59 61 60 54 46 50 51 41 28 25 20 10 6 7 2 12 6 12 15 13 24 5 9 16 33 23 20 13 10 9 10 18 4 4 10 17 24 28 22 14 8 10 8 12 19 18 17 3
45 47 49 52 55 58 61 64 63 58 54 54 49 31 24 18 10 0 3 14 6 3 7 5 9 18 21 10 6 8 19 21 20 10 7 5 8 6 5 20 36 36 33 28 33 26 15 7 9 12 15 21 25 15
48 49 50 53 57 60 65 69 68 61 55 52 43 27 16 8 7 3 8 8 16 6 6 4 4 7 20 9 7 3 6 4 5 5 5 7 2 8 14 35 44 46 48 52 38 28 22 12 7 7 7 21 28 27
49 51 51 53 56 62 70 72 67 52 47 42 29 7 4 5 2 4 2 8 13 9 10 8 8 7 10 10 7 8 6 3 0 3 0 5 7 13 13 24 43 48 35 33 28 29 31 30 30 18 20 28 30 21
51 52 51 52 58 66 63 52 48 44 41 25 12 6 4 7 6 6 8 9 8 6 12 13 17 7 4 1 3 6 1 4 2 7 2 4 6 7 42 39 26 40 41 44 48 36 35 23 40 32 32 28 21 15
52 52 51 53 61 54 49 38 42 48 42 32 27 33 18 6 7 4 7 4 8 7 3 6 7 10 8 5 3 5 3 3 8 7 2 4 5 33 47 44 34 22 29 38 44 29 23 36 37 35 37 30 22 18
52 51 51 56 51 47 43 41 41 40 35 17 4 6 3 5 3 8 5 3 3 1 8 13 8 7 4 3 5 4 2 8 7 2 5 7 12 43 47 51 29 18 6 22 32 26 33 46 46 41 36 31 25 21
52 49 54 47 38 43 38 37 34 28 11 5 6 10 4 6 7 5 5 4 2 5 16 12 7 5 6 5 1 1 2 2 3 3 7 5 32 47 43 40 23 8 12 25 33 37 56 56 48 36 30 31 28 24
52 50 43 30 41 34 40 33 21 15 4 1 2 4 4 13 25 17 10 11 14 12 16 12 7 2 5 2 1 2 2 6 6 5 5 22 43 47 39 36 26 13 8 23 31 55 52 52 46 38 32 30 22 19
52 49 28 47 35 36 30 18 12 3 3 3 6 6 13 9 11 14 15 12 13 15 16 5 4 4 6 4 3 9 3 7 5 5 20 38 42 39 43 36 32 18 17 22 45 51 48 54 47 44 36 26 19 12
47 33 44 38 31 28 14 12 8 5 5 5 9 18 16 17 15 9 9 11 18 13 4 1 6 8 2 3 5 5 5 4 14 30 29 33 39 37 39 31 24 14 24 42 54 46 52 48 49 43 36 28 22 20
46 36 29 26 30 20 9 6 5 4 7 9 9 13 21 16 14 11 14 23 14 7 4 5 6 4 4 6 5 5 9 25 24 24 36 38 32 28 21 12 9 22 37 43 51 55 53 52 45 39 34 30 30 30
41 32 17 25 29 19 5 4 4 5 9 13 18 19 14 12 14 17 20 22 14 10 9 7 4 1 2 1 7 26 30 26 31 41 41 36 26 16 5 5 3 14 26 41 58 55 56 47 39 35 34 30 29 29
28 20 19 23 21 7 6 5 5 7 8 8 19 17 16 15 14 12 17 16 5 2 2 3 2 7 12 29 27 36 42 41 36 33 35 26 25 15 17 15 10 5 19 30 40 45 41 40 30 28 29 22 24 24
17 14 21 16 9 6 8 6 8 8 11 11 17 16 8 10 9 9 12 18 5 3 5 4 12 21 21 23 23 17 20 21 21 21 24 26 10 3 10 27 21 20 21 29 31 27 32 31 29 26 21 14 15 18
10 18 14 7 4 6 10 9 9 9 8 12 14 6 7 5 8 9 11 10 5 8 9 16 29 22 16 15 16 19 20 18 15 9 2 7 19 23 24 21 37 16 23 26 21 20 27 27 24 20 13 15 19 16
14 10 6 4 4 7 7 7 6 5 3 6 8 5 3 4 6 12 8 14 9 28 34 39 38 31 34 29 27 21 36 36 31 33 36 33 28 30 32 37 32 31 30 27 17 11 18 19 15 14 14 13 8 8
11 6 5 5 8 9 6 6 6 6 6 6 5 5 4 5 4 9 5 10 1 20 28 35 32 39 32 27 36 27 34 48 32 30 37 41 33 32 31 27 25 22 26 23 21 15 14 13 13 10 8 9 7 5
7 8 7 8 9 5 5 6 5 3 4 3 5 2 2 1 4 3 5 6 18 15 24 27 35 23 21 28 25 22 30 45 50 37 31 33 36 30 26 26 30 33 32 28 26 24 22 19 14 12 12 12 6 3
5 10 13 10 5 7 5 3 4 5 3 4 3 7 3 3 3 4 5 9 16 21 25 26 21 11 15 24 32 29 30 28 29 33 31 28 31 44 45 45 41 37 29 25 19 15 12 9 4 6 10 12 6 1
6 10 14 13 6 4 5 8 6 2 3 3 4 6 5 5 1 4 7 8 2 6 10 13 10 20 24 26 35 38 34 32 40 42 35 29 31 30 30 32 34 33 28 23 20 16 16 16 15 14 11 8 4 3
16 8 10 11 11 11 5 3 3 5 4 4 1 2 2 3 3 4 8 18 12 11 15 21 26 25 21 14 16 16 18 22 21 22 29 31 26 22 22 23 24 24 24 21 19 17 15 14 11 9 7 6 7 12
13 11 14 8 8 7 10 10 8 6 5 7 8 4 5 4 1 7 14 16 9 6 7 15 18 16 17 18 14 14 11 9 4 10 19 25 21 25 27 20 9 10 13 12 11 12 15 17 14 12 10 10 14 16
10 21 11 9 8 7 5 9 8 6 3 5 4 3 4 4 6 10 8 10 11 7 8 10 12 7 14 22 22 23 21 17 17 16 17 19 20 18 21 22 27 28 26 31 32 24 18 18 21 22 23 24 23 22
7 23 9 10 7 6 11 15 14 8 3 4 3 4 7 5 6 8 9 11 18 18 9 9 11 11 22 24 23 22 22 18 14 15 18 21 21 20 21 24 26 25 28 33 39 44 32 27 25 25 24 26 27 27
17 18 17 7 7 12 22 14 12 6 4 4 3 5 4 1 2 5 8 13 19 21 20 16 10 8 15 17 15 16 17 19 19 14 13 14 15 14 12 12 16 20 21 25 35 38 32 27 24 21 19 19 20 21
13 12 10 10 8 9 10 12 9 6 5 7 6 10 10 5 6 6 13 9 12 13 16 21 19 15 12 13 12 12 13 14 15 17 16 12 9 10 12 14 16 15 19 25 30 30 26 29 29 27 18 13 16 20
Wind_Direction_500mb
360 0 0 1 360 357 354 351 347 343 341 337 334 331 330 327 322 321 308 274 235 251 270 261 251 246 253 249 203 299 338 277 343 97 143 189 197 218 116 156 206 159 121 107 108 86 213 105 109 163 197 173 161 6
353 354 355 355 356 356 354 351 345 342 339 337 333 328 325 322 318 315 315 282 255 259 265 277 275 267 253 247 244 244 257 288 251 89 236 112 87 29 75 232 137 226 171 176 166 207 221 163 151 192 201 216 241 299
346 348 350 352 353 354 353 350 346 340 335 333 332 332 327 320 316 311 307 300 284 278 296 277 290 289 232 248 231 232 256 230 247 226 171 130 158 123 181 255 206 195 229 120 125 224 220 222 274 265 261 272 272 290
339 342 346 348 350 352 353 351 347 343 339 333 328 328 325 318 311 307 302 298 286 279 286 286 297 302 270 257 243 219 210 213 231 189 122 128 182 181 207 230 215 226 118 151 297 281 360 245 235 254 258 269 269 278
333 336 340 342 344 348 349 349 347 342 341 335 327 323 320 315 310 307 299 287 263 235 278 292 312 44 19 285 226 220 222 229 265 338 65 217 164 188 245 30 266 193 176 156 214 199 149 96 145 192 219 263 282 276
328 333 335 336 338 341 342 345 345 340 333 332 329 324 315 310 309 318 310 280 270 217 295 311 316 311 352 341 224 215 215 224 225 235 230 247 248 170 154 229 261 211 202 199 176 184 191 167 263 273 263 262 253 262
324 328 332 334 334 336 339 339 340 338 332 329 326 320 310 305 298 286 267 322 260 182 274 298 306 314 337 41 110 176 196 194 200 222 232 212 205 183 157 239 286 303 239 226 225 197 202 237 264 253 253 229 190 165
322 325 327 330 331 332 333 334 334 334 329 328 326 314 304 290 282 304 308 250 220 251 267 279 275 319 359 4 98 137 167 192 201 226 206 190 133 165 226 248 267 275 271 240 232 216 232 258 281 261 254 217 198 180
323 324 325 327 328 328 328 328 328 327 325 325 322 309 297 218 184 211 301 253 209 279 282 282 271 277 338 5 3 96 152 147 196 196 219 148 160 209 225 227 241 245 242 243 234 221 230 221 197 249 212 164 175 167
324 325 326 326 325 325 325 323 321 328 329 329 319 288 213 138 213 271 219 172 211 226 229 239 243 267 327 343 356 356 27 89 276 263 81 150 237 270 30 316 280 276 272 247 180 196 191 185 180 168 152 158 175 164
325 326 326 327 326 327 326 326 326 334 343 347 325 275 291 315 256 211 209 199 197 246 216 239 230 253 294 36 257 14 234 353 358 263 136 222 266 284 337 322 297 269 261 253 236 243 206 210 173 169 174 178 174 159
326 327 327 329 328 329 331 332 329 330 332 319 295 285 288 212 194 213 223 181 199 235 196 263 303 259 295 295 113 19 105 43 249 326 42 282 266 333 332 323 312 298 260 226 225 218 180 178 179 181 170 167 157 138
326 327 328 327 327 330 330 330 327 324 325 325 327 300 285 176 215 211 229 262 308 234 357 343 324 315 294 339 63 70 88 236 324 358 240 226 308 344 337 331 322 320 262 202 194 186 169 163 161 165 160 156 151 135
326 328 329 326 326 328 329 333 330 332 330 355 345 336 347 320 288 244 251 203 337 346 337 335 337 329 320 9 124 273 241 43 297 262 246 260 339 338 337 347 337 317 149 161 166 165 161 160 158 160 158 152 146 138
325 332 329 320 332 331 329 329 323 322 305 30 297 60 323 270 297 293 331 354 356 327 340 329 308 236 293 297 313 43 227 251 221 238 246 333 334 333 330 338 334 303 209 170 167 161 161 159 156 151 146 145 145 139
327 337 328 330 338 338 337 356 4 352 285 253 226 270 252 278 305 352 354 346 354 345 325 279 291 310 256 181 182 226 208 230 244 238 319 331 326 327 331 324 322 286 238 181 163 166 168 163 154 147 146 144 139 130
330 333 327 322 334 336 329 350 348 327 290 246 246 265 274 284 266 290 315 321 320 317 260 272 246 232 42 286 252 198 217 234 315 319 328 330 319 316 320 321 309 232 204 174 152 156 172 165 156 153 151 143 136 135
327 329 319 315 336 335 298 335 325 287 274 263 281 316 329 301 293 300 317 329 310 246 208 238 295 226 253 279 295 301 324 316 319 319 326 331 318 316 320 312 208 182 174 165 150 164 179 172 165 161 154 144 139 135
325 328 319 318 332 332 290 271 291 271 261 285 286 289 317 316 314 304 314 326 310 248 273 281 276 297 337 297 300 308 305 300 306 313 319 324 311 295 271 201 135 153 156 161 162 175 177 172 167 170 171 163 155 154
314 314 323 321 325 303 290 260 258 264 268 290 287 296 299 294 313 335 352 350 351 328 325 22 168 267 280 302 305 300 301 305 306 305 318 333 316 244 229 244 291 23 187 184 184 183 185 167 166 161 167 174 183 176
310 313 323 325 319 282 264 263 247 250 287 274 295 308 299 301 315 329 340 356 63 28 311 276 292 305 296 294 294 311 330 327 309 296 301 309 312 253 200 193 169 161 146 140 171 178 166 159 156 157 154 169 179 185
293 318 313 322 287 282 270 238 261 281 265 281 303 278 293 341 345 357 341 18 354 287 281 303 321 321 330 358 353 338 328 319 323 301 322 164 132 130 114 121 165 162 149 152 151 150 145 153 156 148 136 149 156 175
304 306 275 260 271 253 267 270 263 242 255 278 305 290 340 11 14 3 46 18 354 25 65 48 35 45 41 21 9 23 17 19 69 65 80 87 105 121 130 119 132 137 144 137 146 155 135 131 129 140 150 162 178 220
294 263 244 236 228 265 285 255 244 274 282 328 325 321 48 19 62 64 23 341 36 74 69 46 45 43 57 40 11 20 68 42 62 90 101 89 108 120 120 118 121 134 138 132 124 134 140 139 131 126 146 183 166 114
277 219 218 259 226 248 266 304 299 345 282 310 318 347 358 355 83 113 194 241 237 282 326 336 347 4 347 11 27 51 87 89 74 77 94 110 115 121 114 109 106 102 99 100 103 101 105 109 113 122 124 119 66 38
254 216 187 214 204 184 223 242 234 244 264 283 294 322 13 89 103 191 226 238 262 288 324 338 347 22 45 28 36 82 89 94 94 73 76 84 105 101 98 96 89 82 85 84 83 96 112 119 131 204 216 218 232 136
244 256 224 225 236 231 275 256 259 182 264 280 319 359 9 344 212 249 171 175 74 31 14 12 51 58 50 65 69 74 92 92 96 84 78 81 85 80 81 84 82 81 80 88 94 91 84 77 69 62 54 42 168 196
236 249 196 191 202 220 226 236 217 206 208 194 53 332 282 242 251 128 149 147 128 69 51 94 99 67 55 62 78 88 85 72 88 102 93 96 93 84 82 87 97 98 89 96 90 79 65 50 39 15 346 329 308 299
231 221 197 222 213 217 224 203 207 204 190 181 159 222 248 253 248 133 145 161 162 94 104 110 101 78 61 78 93 64 77 61 25 122 101 101 87 72 63 63 100 107 93 77 60 32 15 4 353 347 337 320 314 314
239 193 198 193 175 221 236 185 178 170 202 233 222 196 226 210 157 148 169 187 191 160 139 117 105 115 127 97 84 80 78 74 80 91 106 109 97 85 79 77 82 85 72 46 34 21 356 333 328 331 340 343 347 343
209 183 193 180 219 221 189 168 158 137 82 28 89 166 145 152 184 222 214 189 180 182 178 154 107 100 133 114 103 85 86 87 97 105 108 110 107 104 97 88 73 60 41 30 26 27 24 21 25 26 29 35 37 33
190 192 169 171 223 177 167 169 174 173 124 124 135 164 159 124 61 172 175 179 193 203 206 196 178 149 158 150 112 91 78 107 110 106 112 120 117 98 75 55 37 17 21 30 32 35 35 31 26 26 27 28 32 38
191 178 171 135 133 168 183 174 173 143 145 163 165 197 207 232 242 209 196 188 180 182 186 203 210 194 163 151 149 112 101 120 112 108 100 86 63 36 21 14 8 9 13 22 31 38 40 43 47 41 34 39 35 23
Wind_Speed_850mb
38 42 46 48 50 50 48 45 40 38 37 36 30 25 24 22 22 22 18 17 21 15 46 56 47 33 29 20 4 10 13 7 4 3 6 8 9 6 3 6 8 9 9 1 2 7 2 4 8 10 9 13 5 3
38 41 45 47 50 52 51 49 44 41 39 36 29 25 26 27 26 27 19 18 25 30 37 60 70 71 57 41 15 12 7 7 6 5 2 4 1 2 3 6 0 6 12 10 13 11 6 2 3 4 9 10 6 7
40 43 46 48 52 56 55 52 47 43 41 35 27 28 30 30 29 31 34 27 29 28 51 29 25 16 17 32 69 21 17 14 8 6 7 3 3 7 4 9 5 5 5 9 5 8 13 8 13 14 13 20 14 12
41 43 47 50 53 55 56 58 53 46 37 32 29 35 35 32 31 35 35 30 22 13 9 15 4 30 33 36 31 71 35 8 9 8 4 4 2 6 6 7 6 3 7 6 4 9 12 20 32 24 16 17 16 13
41 45 47 50 52 55 58 59 56 45 38 36 38 40 38 35 34 35 34 31 22 15 9 31 50 4 11 6 30 46 63 60 13 4 3 3 7 6 3 1 5 13 12 9 10 12 8 3 10 12 8 7 8 12
41 45 47 50 53 54 56 59 59 49 44 47 47 44 37 33 31 24 7 3 7 22 10 9 21 13 22 17 17 35 51 50 29 8 8 7 7 6 3 5 12 25 22 18 5 7 15 3 3 10 13 12 4 3
43 46 48 51 54 57 59 61 60 54 46 50 51 41 28 25 20 10 6 7 2 12 6 12 15 13 24 5 9 16 33 23 20 13 10 9 10 18 4 4 10 17 24 28 22 14 8 10 8 12 19 18 17 3
45 47 49 52 55 58 61 64 63 58 54 54 49 31 24 18 10 0 3 14 6 3 7 5 9 18 21 10 6 8 19 21 20 10 7 5 8 6 5 20 36 36 33 28 33 26 15 7 9 12 15 21 25 15
48 49 50 53 57 60 65 69 68 61 55 52 43 27 16 8 7 3 8 8 16 6 6 4 4 7 20 9 7 3 6 4 5 5 5 7 2 8 14 35 44 46 48 52 38 28 22 12 7 7 7 21 28 27
49 51 51 53 56 62 70 72 67 52 47 42 29 7 4 5 2 4 2 8 13 9 10 8 8 7 10 10 7 8 6 3 0 3 0 5 7 13 13 24 43 48 35 33 28 29 31 30 30 18 20 28 30 21
51 52 51 52 58 66 63 52 48 44 41 25 12 6 4 7 6 6 8 9 8 6 12 13 17 7 4 1 3 6 1 4 2 7 2 4 6 7 42 39 26 40 41 44 48 36 35 23 40 32 32 28 21 15
52 52 51 53 61 54 49 38 42 48 42 32 27 33 18 6 7 4 7 4 8 7 3 6 7 10 8 5 3 5 3 3 8 7 2 4 5 33 47 44 34 22 29 38 44 29 23 36 37 35 37 30 22 18
52 51 51 56 51 47 43 41 41 40 35 17 4 6 3 5 3 8 5 3 3 1 8 13 8 7 4 3 5 4 2 8 7 2 5 7 12 43 47 51 29 18 6 22 32 26 33 46 46 41 36 31 25 21
52 49 54 47 38 43 38 37 34 28 11 5 6 10 4 6 7 5 5 4 2 5 16 12 7 5 6 5 1 1 2 2 3 3 7 5 32 47 43 40 23 8 12 25 33 37 56 56 48 36 30 31 28 24
52 50 43 30 41 34 40 33 21 15 4 1 2 4 4 13 25 17 10 11 14 12 16 12 7 2 5 2 1 2 2 6 6 5 5 22 43 47 39 36 26 13 8 23 31 55 52 52 46 38 32 30 22 19
52 49 28 47 35 36 30 18 12 3 3 3 6 6 13 9 11 14 15 12 13 15 16 5 4 4 6 4 3 9 3 7 5 5 20 38 42 39 43 36 32 18 17 22 45 51 48 54 47 44 36 26 19 12
47 33 44 38 31 28 14 12 8 5 5 5 9 18 16 17 15 9 9 11 18 13 4 1 6 8 2 3 5 5 5 4 14 30 29 33 39 37 39 31 24 14 24 42 54 46 52 48 49 43 36 28 22 20
46 36 29 26 30 20 9 6 5 4 7 9 9 13 21 16 14 11 14 23 14 7 4 5 6 4 4 6 5 5 9 25 24 24 36 38 32 28 21 12 9 22 37 43 51 55 53 52 45 39 34 30 30 30
41 32 17 25 29 19 5 4 4 5 9 13 18 19 14 12 14 17 20 22 14 10 9 7 4 1 2 1 7 26 30 26 31 41 41 36 26 16 5 5 3 14 26 41 58 55 56 47 39 35 34 30 29 29
28 20 19 23 21 7 6 5 5 7 8 8 19 17 16 15 14 12 17 16 5 2 2 3 2 7 12 29 27 36 42 41 36 33 35 26 25 15 17 15 10 5 19 30 40 45 41 40 30 28 29 22 24 24
17 14 21 16 9 6 8 6 8 8 11 11 17 16 8 10 9 9 12 18 5 3 5 4 12 21 21 23 23 17 20 21 21 21 24 26 10 3 10 27 21 20 21 29 31 27 32 31 29 26 21 14 15 18
10 18 14 7 4 6 10 9 9 9 8 12 14 6 7 5 8 9 11 10 5 8 9 16 29 22 16 15 16 19 20 18 15 9 2 7 19 23 24 21 37 16 23 26 21 20 27 27 24 20 13 15 19 16
14 10 6 4 4 7 7 7 6 5 3 6 8 5 3 4 6 12 8 14 9 28 34 39 38 31 34 29 27 21 36 36 31 33 36 33 28 30 32 37 32 31 30 27 17 11 18 19 15 14 14 13 8 8
11 6 5 5 8 9 6 6 6 6 6 6 5 5 4 5 4 9 5 10 1 20 28 35 32 39 32 27 36 27 34 48 32 30 37 41 33 32 31 27 25 22 26 23 21 15 14 13 13 10 8 9 7 5
7 8 7 8 9 5 5 6 5 3 4 3 5 2 2 1 4 3 5 6 18 15 24 27 35 23 21 28 25 22 30 45 50 37 31 33 36 30 26 26 30 33 32 28 26 24 22 19 14 12 12 12 6 3
5 10 13 10 5 7 5 3 4 5 3 4 3 7 3 3 3 4 5 9 16 21 25 26 21 11 15 24 32 29 30 28 29 33 31 28 31 44 45 45 41 37 29 25 19 15 12 9 4 6 10 12 6 1
6 10 14 13 6 4 5 8 6 2 3 3 4 6 5 5 1 4 7 8 2 6 10 13 10 20 24 26 35 38 34 32 40 42 35 29 31 30 30 32 34 33 28 23 20 16 16 16 15 14 11 8 4 3
16 8 10 11 11 11 5 3 3 5 4 4 1 2 2 3 3 4 8 18 12 11 15 21 26 25 21 14 16 16 18 22 21 22 29 31 26 22 22 23 24 24 24 21 19 17 15 14 11 9 7 6 7 12
13 11 14 8 8 7 10 10 8 6 5 7 8 4 5 4 1 7 14 16 9 6 7 15 18 16 17 18 14 14 11 9 4 10 19 25 21 25 27 20 9 10 13 12 11 12 15 17 14 12 10 10 14 16
10 21 11 9 8 7 5 9 8 6 3 5 4 3 4 4 6 10 8 10 11 7 8 10 12 7 14 22 22 23 21 17 17 16 17 19 20 18 21 22 27 28 26 31 32 24 18 18 21 22 23 24 23 22
7 23 9 10 7 6 11 15 14 8 3 4 3 4 7 5 6 8 9 11 18 18 9 9 11 11 22 24 23 22 22 18 14 15 18 21 21 20 21 24 26 25 28 33 39 44 32 27 25 25 24 26 27 27
17 18 17 7 7 12 22 14 12 6 4 4 3 5 4 1 2 5 8 13 19 21 20 16 10 8 15 17 15 16 17 19 19 14 13 14 15 14 12 12 16 20 21 25 35 38 32 27 24 21 19 19 20 21
13 12 10 10 8 9 10 12 9 6 5 7 6 10 10 5 6 6 13 9 12 13 16 21 19 15 12 13 12 12 13 14 15 17 16 12 9 10 12 14 16 15 19 25 30 30 26 29 29 27 18 13 16 20
Wind_Direction_850mb
360 0 0 1 360 357 354 351 347 343 341 337 334 331 330 327 322 321 308 274 235 251 270 261 251 246 253 249 203 299 338 277 343 97 143 189 197 218 116 156 206 159 121 107 108 86 213 105 109 163 197 173 161 6
353 354 355 355 356 356 354 351 345 342 339 337 333 328 325 322 318 315 315 282 255 259 265 277 275 267 253 247 244 244 257 288 251 89 236 112 87 29 75 232 137 226 171 176 166 207 221 163 151 192 201 216 241 299
346 348 350 352 353 354 353 350 346 340 335 333 332 332 327 320 316 311 307 300 284 278 296 277 290 289 232 248 231 232 256 230 247 226 171 130 158 123 181 255 206 195 229 120 125 224 220 222 274 265 261 272 272 290
339 342 346 348 350 352 353 351 347 343 339 333 328 328 325 318 311 307 302 298 286 279 286 286 297 302 270 257 243 219 210 213 231 189 122 128 182 181 207 230 215 226 118 151 297 281 360 245 235 254 258 269 269 278
333 336 340 342 344 348 349 349 347 342 341 335 327 323 320 315 310 307 299 287 263 235 278 292 312 44 19 285 226 220 222 229 265 338 65 217 164 188 245 30 266 193 176 156 214 199 149 96 145 192 219 263 282 276
328 333 335 336 338 341 342 345 345 340 333 332 329 324 315 310 309 318 310 280 270 217 295 311 316 311 352 341 224 215 215 224 225 235 230 247 248 170 154 229 261 211 202 199 176 184 191 167 263 273 263 262 253 262
324 328 332 334 334 336 339 339 340 338 332 329 326 320 310 305 298 286 267 322 260 182 274 298 306 314 337 41 110 176 196 194 200 222 232 212 205 183 157 239 286 303 239 226 225 197 202 237 264 253 253 229 190 165
322 325 327 330 331 332 333 334 334 334 329 328 326 314 304 290 282 304 308 250 220 251 267 279 275 319 359 4 98 137 167 192 201 226 206 190 133 165 226 248 267 275 271 240 232 216 232 258 281 261 254 217 198 180
323 324 325 327 328 328 328 328 328 327 325 325 322 309 297 218 184 211 301 253 209 279 282 282 271 277 338 5 3 96 152 147 196 196 219 148 160 209 225 227 241 245 242 243 234 221 230 221 197 249 212 164 175 167
324 325 326 326 325 325 325 323 321 328 329 329 319 288 213 138 213 271 219 172 211 226 229 239 243 267 327 343 356 356 27 89 276 263 81 150 237 270 30 316 280 276 272 247 180 196 191 185 180 168 152 158 175 164
325 326 326 327 326 327 326 326 326 334 343 347 325 275 291 315 256 211 209 199 197 246 216 239 230 253 294 36 257 14 234 353 358 263 136 222 266 284 337 322 297 269 261 253 236 243 206 210 173 169 174 178 174 159
326 327 327 329 328 329 331 332 329 330 332 319 295 285 288 212 194 213 223 181 199 235 196 263 303 259 295 295 113 19 105 43 249 326 42 282 266 333 332 323 312 298 260 226 225 218 180 178 179 181 170 167 157 138
326 327 328 327 327 330 330 330 327 324 325 325 327 300 285 176 215 211 229 262 308 234 357 343 324 315 294 339 63 70 88 236 324 358 240 226 308 344 337 331 322 320 262 202 194 186 169 163 161 165 160 156 151 135
326 328 329 326 326 328 329 333 330 332 330 355 345 336 347 320 288 244 251 203 337 346 337 335 337 329 320 9 124 273 241 43 297 262 246 260 339 338 337 347 337 317 149 161 166 165 161 160 158 160 158 152 146 138
325 332 329 320 332 331 329 329 323 322 305 30 297 60 323 270 297 293 331 354 356 327 340 329 308 236 293 297 313 43 227 251 221 238 246 333 334 333 330 338 334 303 209 170 167 161 161 159 156 151 146 145 145 139
327 337 328 330 338 338 337 356 4 352 285 253 226 270 252 278 305 352 354 346 354 345 325 279 291 310 256 181 182 226 208 230 244 238 319 331 326 327 331 324 322 286 238 181 163 166 168 163 154 147 146 144 139 130
330 333 327 322 334 336 329 350 348 327 290 246 246 265 274 284 266 290 315 321 320 317 260 272 246 232 42 286 252 198 217 234 315 319 328 330 319 316 320 321 309 232 204 174 152 156 172 165 156 153 151 143 136 135
327 329 319 315 336 335 298 335 325 287 274 263 281 316 329 301 293 300 317 329 310 246 208 238 295 226 253 279 295 301 324 316 319 319 326 331 318 316 320 312 208 182 174 165 150 164 179 172 165 161 154 144 139 135
325 328 319 318 332 332 290 271 291 271 261 285 286 289 317 316 314 304 314 326 310 248 273 281 276 297 337 297 300 308 305 300 306 313 319 324 311 295 271 201 135 153 156 161 162 175 177 172 167 170 171 163 155 154
314 314 323 321 325 303 290 260 258 264 268 290 287 296 299 294 313 335 352 350 351 328 325 22 168 267 280 302 305 300 301 305 306 305 318 333 316 244 229 244 291 23 187 184 184 183 185 167 166 161 167 174 183 176
310 313 323 325 319 282 264 263 247 250 287 274 295 308 299 301 315 329 340 356 63 28 311 276 292 305 296 294 294 311 330 327 309 296 301 309 312 253 200 193 169 161 146 140 171 178 166 159 156 157 154 169 179 185
293 318 313 322 287 282 270 238 261 281 265 281 303 278 293 341 345 357 341 18 354 287 281 303 321 321 330 358 353 338 328 319 323 301 322 164 132 130 114 121 165 162 149 152 151 150 145 153 156 148 136 149 156 175
304 306 275 260 271 253 267 270 263 242 255 278 305 290 340 11 14 3 46 18 354 25 65 48 35 45 41 21 9 23 17 19 69 65 80 87 105 121 130 119 132 137 144 137 146 155 135 131 129 140 150 162 178 220
294 263 244 236 228 265 285 255 244 274 282 328 325 321 48 19 62 64 23 341 36 74 69 46 45 43 57 40 11 20 68 42 62 90 101 89 108 120 120 118 121 134 138 132 124 134 140 139 131 126 146 183 166 114
277 219 218 259 226 248 266 304 299 345 282 310 318 347 358 355 83 113 194 241 237 282 326 336 347 4 347 11 27 51 87 89 74 77 94 110 115 121 114 109 106 102 99 100 103 101 105 109 113 122 124 119 66 38
254 216 187 214 204 184 223 242 234 244 264 283 294 322 13 89 103 191 226 238 262 288 324 338 347 22 45 28 36 82 89 94 94 73 76 84 105 101 98 96 89 82 85 84 83 96 112 119 131 204 216 218 232 136
244 256 224 225 236 231 275 256 259 182 264 280 319 359 9 344 212 249 171 175 74 31 14 12 51 58 50 65 69 74 92 92 96 84 78 81 85 80 81 84 82 81 80 88 94 91 84 77 69 62 54 42 168 196
236 249 196 191 202 220 226 236 217 206 208 194 53 332 282 242 251 128 149 147 128 69 51 94 99 67 55 62 78 88 85 72 88 102 93 96 93 84 82 87 97 98 89 96 90 79 65 50 39 15 346 329 308 299
231 221 197 222 213 217 224 203 207 204 190 181 159 222 248 253 248 133 145 161 162 94 104 110 101 78 61 78 93 64 77 61 25 122 101 101 87 72 63 63 100 107 93 77 60 32 15 4 353 347 337 320 314 314
239 193 198 193 175 221 236 185 178 170 202 233 222 196 226 210 157 148 169 187 191 160 139 117 105 115 127 97 84 80 78 74 80 91 106 109 97 85 79 77 82 85 72 46 34 21 356 333 328 331 340 343 347 343
209 183 193 180 219 221 189 168 158 137 82 28 89 166 145 152 184 222 214 189 180 182 178 154 107 100 133 114 103 85 86 87 97 105 108 110 107 104 97 88 73 60 41 30 26 27 24 21 25 26 29 35 37 33
190 192 169 171 223 177 167 169 174 173 124 124 135 164 159 124 61 172 175 179 193 203 206 196 178 149 158 150 112 91 78 107 110 106 112 120 117 98 75 55 37 17 21 30 32 35 35 31 26 26 27 28 32 38
191 178 171 135 133 168 183 174 173 143 145 163 165 197 207 232 242 209 196 188 180 182 186 203 210 194 163 151 149 112 101 120 112 108 100 86 63 36 21 14 8 9 13 22 31 38 40 43 47 41 34 39 35 23